When you browse on this site, cookies collect data to enhance your experience and personalize the content and advertising you see.
Visit our Privacy Policy to learn more. By continuing to use the site, you agree to this use of cookies and data.
  • In Spain
  • List of Countries
  • For 7 days
  • Water Temperature
  • Weather Map
  • Weather Widgets
  • user-avatar
    Login

    Hourly Weather Trashigang

    Today, 28 February, Friday

    Time Temperature Precipitation Wind Pressure Humidity
    00:00 +9°C° 0 mm 1 mps 627 mmHg 86%
    01:00 +8°C° 0 mm 1 mps 626 mmHg 83%
    02:00 +8°C° 0 mm 1 mps 626 mmHg 81%
    03:00 +8°C° 0 mm 1 mps 625 mmHg 78%
    04:00 +8°C° 0 mm 1 mps 626 mmHg 75%
    05:00 +6°C° 0 mm 2 mps 626 mmHg 73%
    06:00 +6°C° 0 mm 2 mps 626 mmHg 67%
    07:00 +10°C° 0 mm 1 mps 628 mmHg 59%
    08:00 +13°C° 0 mm 1 mps 629 mmHg 50%
    09:00 +15°C° 0 mm 0 mps 631 mmHg 41%
    10:00 +18°C° 0 mm 1 mps 631 mmHg 40%
    11:00 +18°C° 0 mm 2 mps 630 mmHg 40%
    12:00 +19°C° 0 mm 3 mps 630 mmHg 39%
    13:00 +19°C° 0 mm 3 mps 630 mmHg 42%
    14:00 +19°C° 0 mm 2 mps 629 mmHg 46%
    15:00 +19°C° 0 mm 2 mps 628 mmHg 50%
    16:00 +16°C° 0 mm 2 mps 627 mmHg 62%
    17:00 +14°C° 0 mm 1 mps 627 mmHg 74%
    18:00 +12°C° 0 mm 1 mps 626 mmHg 85%
    19:00 +11°C° 0 mm 1 mps 626 mmHg 85%
    20:00 +11°C° 0 mm 1 mps 627 mmHg 84%
    21:00 +11°C° 0 mm 1 mps 627 mmHg 84%
    22:00 +9°C° 0 mm 2 mps 627 mmHg 80%
    23:00 +9°C° 0 mm 2 mps 627 mmHg 76%

    Tomorrow, 29 February, Saturday

    Time Temperature Precipitation Wind Pressure Humidity
    00:00 +9°C° 0 mm 2 mps 627 mmHg 72%
    01:00 +9°C° 0 mm 2 mps 626 mmHg 69%
    02:00 +9°C° 0 mm 2 mps 626 mmHg 67%
    03:00 +9°C° 0 mm 2 mps 625 mmHg 64%
    04:00 +8°C° 0 mm 2 mps 625 mmHg 62%
    05:00 +8°C° 0 mm 2 mps 625 mmHg 61%
    06:00 +8°C° 0 mm 2 mps 626 mmHg 60%
    07:00 +12°C° 0 mm 1 mps 627 mmHg 52%
    08:00 +15°C° 0 mm 1 mps 628 mmHg 44%
    09:00 +19°C° 0 mm 1 mps 630 mmHg 35%
    10:00 +20°C° 0 mm 1 mps 630 mmHg 35%
    11:00 +20°C° 0 mm 2 mps 629 mmHg 34%
    12:00 +21°C° 0 mm 3 mps 629 mmHg 33%
    13:00 +20°C° 0 mm 3 mps 629 mmHg 38%
    14:00 +20°C° 0 mm 3 mps 628 mmHg 43%
    15:00 +19°C° 0 mm 3 mps 627 mmHg 48%
    16:00 +17°C° 0 mm 2 mps 626 mmHg 58%
    17:00 +15°C° 0 mm 1 mps 626 mmHg 69%
    18:00 +13°C° 0 mm 1 mps 625 mmHg 80%
    19:00 +12°C° 0 mm 1 mps 626 mmHg 81%
    20:00 +11°C° 0 mm 1 mps 626 mmHg 83%
    21:00 +11°C° 0 mm 1 mps 626 mmHg 84%
    22:00 +10°C° 0 mm 1 mps 626 mmHg 80%
    23:00 +10°C° 0 mm 1 mps 626 mmHg 75%

    Day after tomorrow, 1 March, Sunday

    Time Temperature Precipitation Wind Pressure Humidity
    00:00 +9°C° 0 mm 2 mps 626 mmHg 71%
    01:00 +9°C° 0 mm 2 mps 626 mmHg 68%
    02:00 +8°C° 0 mm 2 mps 626 mmHg 64%
    03:00 +8°C° 0 mm 2 mps 625 mmHg 61%
    04:00 +8°C° 0 mm 2 mps 625 mmHg 59%
    05:00 +8°C° 0 mm 2 mps 625 mmHg 57%
    06:00 +8°C° 0 mm 2 mps 625 mmHg 55%
    07:00 +12°C° 0 mm 1 mps 627 mmHg 49%
    08:00 +15°C° 0 mm 1 mps 628 mmHg 42%
    09:00 +17°C° 0 mm 0 mps 630 mmHg 35%
    10:00 +20°C° 0 mm 1 mps 629 mmHg 34%
    11:00 +19°C° 0 mm 2 mps 629 mmHg 32%
    12:00 +20°C° 0 mm 3 mps 629 mmHg 30%
    13:00 +20°C° 0 mm 3 mps 628 mmHg 35%
    14:00 +19°C° 0 mm 3 mps 627 mmHg 39%
    15:00 +19°C° 0 mm 3 mps 626 mmHg 43%
    16:00 +17°C° 0 mm 2 mps 626 mmHg 54%
    17:00 +15°C° 0 mm 2 mps 625 mmHg 64%
    18:00 +13°C° 0 mm 1 mps 625 mmHg 75%
    19:00 +12°C° 0 mm 1 mps 625 mmHg 77%
    20:00 +11°C° 0 mm 1 mps 625 mmHg 79%
    21:00 +11°C° 0 mm 1 mps 626 mmHg 81%
    22:00 +10°C° 0 mm 1 mps 626 mmHg 81%
    23:00 +10°C° 0 mm 1 mps 625 mmHg 80%

    2 March, Monday

    Time Temperature Precipitation Wind Pressure Humidity
    00:00 +10°C° 0 mm 1 mps 625 mmHg 80%
    01:00 +9°C° 0 mm 1 mps 625 mmHg 79%
    02:00 +9°C° 0 mm 1 mps 625 mmHg 78%
    03:00 +9°C° 0 mm 1 mps 624 mmHg 77%
    04:00 +9°C° 0 mm 1 mps 624 mmHg 77%
    05:00 +9°C° 0 mm 1 mps 624 mmHg 78%
    06:00 +9°C° 0 mm 1 mps 624 mmHg 78%
    07:00 +11°C° 0 mm 1 mps 626 mmHg 70%
    08:00 +14°C° 0 mm 1 mps 627 mmHg 62%
    09:00 +15°C° 0 mm 0 mps 629 mmHg 54%
    10:00 +18°C° 0.1 mm 1 mps 628 mmHg 53%
    11:00 +17°C° 0.1 mm 2 mps 628 mmHg 52%
    12:00 +18°C° 0.1 mm 2 mps 628 mmHg 51%
    13:00 +17°C° 0.3 mm 2 mps 627 mmHg 54%
    14:00 +17°C° 0.3 mm 2 mps 626 mmHg 58%
    15:00 +17°C° 0.3 mm 3 mps 625 mmHg 61%
    16:00 +15°C° 0.4 mm 2 mps 625 mmHg 70%
    17:00 +13°C° 0.4 mm 1 mps 624 mmHg 78%
    18:00 +12°C° 0.4 mm 1 mps 624 mmHg 87%
    19:00 +11°C° 0.1 mm 1 mps 624 mmHg 87%
    20:00 +11°C° 0.1 mm 1 mps 624 mmHg 88%
    21:00 +10°C° 0.1 mm 1 mps 625 mmHg 88%
    22:00 +10°C° 0.4 mm 1 mps 625 mmHg 89%
    23:00 +10°C° 0.4 mm 1 mps 625 mmHg 89%

    3 March, Tuesday

    Time Temperature Precipitation Wind Pressure Humidity
    00:00 +10°C° 0.4 mm 1 mps 625 mmHg 89%
    01:00 +9°C° 0.1 mm 1 mps 624 mmHg 88%
    02:00 +9°C° 0.1 mm 1 mps 624 mmHg 88%
    03:00 +9°C° 0.1 mm 1 mps 624 mmHg 87%
    04:00 +9°C° 0 mm 1 mps 624 mmHg 86%
    05:00 +8°C° 0 mm 1 mps 624 mmHg 84%
    06:00 +8°C° 0 mm 1 mps 624 mmHg 83%
    07:00 +11°C° 0 mm 1 mps 625 mmHg 77%
    08:00 +13°C° 0 mm 1 mps 627 mmHg 70%
    09:00 +15°C° 0 mm 1 mps 628 mmHg 64%
    10:00 +16°C° 0.3 mm 1 mps 628 mmHg 61%
    11:00 +17°C° 0.3 mm 2 mps 627 mmHg 59%
    12:00 +18°C° 0.3 mm 2 mps 627 mmHg 56%
    13:00 +17°C° 0.6 mm 2 mps 626 mmHg 61%
    14:00 +17°C° 0.6 mm 2 mps 625 mmHg 65%
    15:00 +16°C° 0.6 mm 2 mps 624 mmHg 70%
    16:00 +14°C° 0.5 mm 2 mps 624 mmHg 77%
    17:00 +13°C° 0.5 mm 1 mps 624 mmHg 84%
    18:00 +11°C° 0.5 mm 0 mps 623 mmHg 91%
    19:00 +10°C° 0 mm 0 mps 624 mmHg 91%
    20:00 +10°C° 0 mm 0 mps 624 mmHg 90%
    21:00 +10°C° 0 mm 1 mps 625 mmHg 89%
    22:00 +10°C° 0 mm 1 mps 625 mmHg 88%
    23:00 +10°C° 0 mm 1 mps 625 mmHg 87%

    4 March, Wednesday

    Time Temperature Precipitation Wind Pressure Humidity
    00:00 +10°C° 0 mm 1 mps 625 mmHg 86%
    01:00 +10°C° 0.1 mm 1 mps 624 mmHg 86%
    02:00 +10°C° 0.1 mm 1 mps 624 mmHg 86%
    03:00 +10°C° 0.1 mm 1 mps 624 mmHg 86%
    04:00 +10°C° 0.1 mm 1 mps 624 mmHg 85%
    05:00 +10°C° 0.1 mm 1 mps 624 mmHg 85%
    06:00 +10°C° 0.1 mm 1 mps 625 mmHg 85%
    07:00 +12°C° 0 mm 1 mps 625 mmHg 82%
    08:00 +13°C° 0 mm 1 mps 626 mmHg 78%
    09:00 +13°C° 0 mm 0 mps 627 mmHg 75%
    10:00 +15°C° 0.2 mm 1 mps 627 mmHg 71%
    11:00 +16°C° 0.2 mm 2 mps 627 mmHg 68%
    12:00 +17°C° 0.2 mm 2 mps 627 mmHg 64%
    13:00 +16°C° 0.8 mm 2 mps 626 mmHg 67%
    14:00 +16°C° 0.8 mm 2 mps 625 mmHg 69%
    15:00 +16°C° 0.8 mm 2 mps 624 mmHg 71%
    16:00 +14°C° 0.3 mm 2 mps 624 mmHg 78%
    17:00 +13°C° 0.3 mm 1 mps 623 mmHg 85%
    18:00 +10°C° 0.3 mm 0 mps 623 mmHg 92%
    19:00 +10°C° 0 mm 0 mps 624 mmHg 91%
    20:00 +10°C° 0 mm 0 mps 625 mmHg 91%
    21:00 +9°C° 0 mm 0 mps 625 mmHg 90%
    22:00 +9°C° 0.1 mm 0 mps 625 mmHg 89%
    23:00 +10°C° 0.1 mm 1 mps 625 mmHg 88%
    Show more